When you browse on this site, cookies collect data to enhance your experience and personalize the content and advertising you see.
Visit our Privacy Policy to learn more. By continuing to use the site, you agree to this use of cookies and data.
  • In Hungary
  • List of Countries
  • For 7 days
  • Water Temperature
  • Satellite Maps
  • Weather Map
  • News
  • Weather Widgets
  • user-avatar
    Login

    Hourly Weather Voykino

    Today, 19 May, Sunday

    Time Temperature Precipitation Wind Pressure Humidity
    00:00 +4°C° 0 mm 3 mps 752 mmHg 69%
    01:00 +4°C° 0.1 mm 3 mps 752 mmHg 72%
    02:00 +4°C° 0.1 mm 3 mps 752 mmHg 74%
    03:00 +4°C° 0 mm 3 mps 751 mmHg 80%
    04:00 +4°C° 0 mm 3 mps 751 mmHg 79%
    05:00 +4°C° 0 mm 4 mps 751 mmHg 78%
    06:00 +4°C° 0 mm 4 mps 751 mmHg 77%
    07:00 +5°C° 0 mm 5 mps 751 mmHg 71%
    08:00 +6°C° 0 mm 5 mps 751 mmHg 64%
    09:00 +7°C° 0 mm 6 mps 751 mmHg 58%
    10:00 +7°C° 0 mm 6 mps 751 mmHg 57%
    11:00 +8°C° 0 mm 6 mps 751 mmHg 55%
    12:00 +8°C° 0 mm 6 mps 752 mmHg 54%
    13:00 +8°C° 0 mm 6 mps 752 mmHg 54%
    14:00 +8°C° 0 mm 6 mps 752 mmHg 54%
    15:00 +8°C° 0 mm 6 mps 752 mmHg 55%
    16:00 +7°C° 0 mm 6 mps 752 mmHg 57%
    17:00 +7°C° 0 mm 6 mps 753 mmHg 58%
    18:00 +6°C° 0 mm 5 mps 753 mmHg 60%
    19:00 +5°C° 0 mm 5 mps 753 mmHg 63%
    20:00 +4°C° 0 mm 4 mps 754 mmHg 67%
    21:00 +3°C° 0 mm 4 mps 754 mmHg 70%
    22:00 +3°C° 0 mm 4 mps 754 mmHg 71%
    23:00 +3°C° 0 mm 4 mps 754 mmHg 73%

    Tomorrow, 20 May, Monday

    Time Temperature Precipitation Wind Pressure Humidity
    00:00 +1°C° 0 mm 4 mps 754 mmHg 75%
    01:00 +1°C° 0 mm 4 mps 755 mmHg 77%
    02:00 +2°C° 0 mm 3 mps 755 mmHg 79%
    03:00 +1°C° 0 mm 3 mps 755 mmHg 82%
    04:00 +1°C° 0 mm 4 mps 755 mmHg 79%
    05:00 +3°C° 0 mm 4 mps 755 mmHg 77%
    06:00 +4°C° 0 mm 4 mps 755 mmHg 74%
    07:00 +5°C° 0 mm 5 mps 755 mmHg 71%
    08:00 +7°C° 0 mm 5 mps 755 mmHg 68%
    09:00 +8°C° 0 mm 6 mps 755 mmHg 64%
    10:00 +8°C° 0.1 mm 6 mps 755 mmHg 62%
    11:00 +9°C° 0.1 mm 6 mps 755 mmHg 59%
    12:00 +9°C° 0.1 mm 5 mps 755 mmHg 56%
    13:00 +10°C° 0 mm 5 mps 755 mmHg 55%
    14:00 +10°C° 0 mm 5 mps 755 mmHg 53%
    15:00 +12°C° 0 mm 5 mps 755 mmHg 52%
    16:00 +10°C° 0 mm 5 mps 755 mmHg 54%
    17:00 +10°C° 0 mm 5 mps 755 mmHg 57%
    18:00 +10°C° 0 mm 4 mps 755 mmHg 59%
    19:00 +8°C° 0 mm 4 mps 756 mmHg 62%
    20:00 +8°C° 0 mm 3 mps 756 mmHg 65%
    21:00 +5°C° 0 mm 3 mps 756 mmHg 68%
    22:00 +5°C° 0 mm 3 mps 756 mmHg 69%
    23:00 +5°C° 0 mm 3 mps 756 mmHg 71%

    Day after tomorrow, 21 May, Tuesday

    Time Temperature Precipitation Wind Pressure Humidity
    00:00 +4°C° 0 mm 3 mps 757 mmHg 72%
    01:00 +4°C° 0 mm 3 mps 757 mmHg 72%
    02:00 +4°C° 0 mm 3 mps 757 mmHg 71%
    03:00 +4°C° 0 mm 3 mps 757 mmHg 71%
    04:00 +5°C° 0 mm 3 mps 758 mmHg 70%
    05:00 +5°C° 0 mm 3 mps 758 mmHg 69%
    06:00 +6°C° 0 mm 4 mps 758 mmHg 68%
    07:00 +7°C° 0 mm 4 mps 758 mmHg 62%
    08:00 +10°C° 0 mm 4 mps 758 mmHg 56%
    09:00 +10°C° 0 mm 5 mps 758 mmHg 50%
    10:00 +10°C° 0 mm 5 mps 758 mmHg 49%
    11:00 +12°C° 0 mm 5 mps 758 mmHg 47%
    12:00 +13°C° 0 mm 5 mps 758 mmHg 45%
    13:00 +13°C° 0 mm 5 mps 758 mmHg 45%
    14:00 +13°C° 0 mm 4 mps 758 mmHg 45%
    15:00 +13°C° 0 mm 4 mps 758 mmHg 45%
    16:00 +13°C° 0 mm 4 mps 757 mmHg 49%
    17:00 +12°C° 0 mm 4 mps 757 mmHg 54%
    18:00 +12°C° 0 mm 4 mps 757 mmHg 58%
    19:00 +11°C° 0 mm 4 mps 757 mmHg 60%
    20:00 +10°C° 0 mm 4 mps 757 mmHg 63%
    21:00 +8°C° 0 mm 4 mps 757 mmHg 65%
    22:00 +8°C° 0.1 mm 3 mps 757 mmHg 69%
    23:00 +8°C° 0.1 mm 2 mps 757 mmHg 72%

    22 May, Wednesday

    Time Temperature Precipitation Wind Pressure Humidity
    00:00 +8°C° 0.1 mm 1 mps 757 mmHg 76%
    01:00 +8°C° 0.1 mm 1 mps 757 mmHg 78%
    02:00 +8°C° 0.1 mm 1 mps 757 mmHg 81%
    03:00 +8°C° 0.1 mm 1 mps 757 mmHg 84%
    04:00 +8°C° 0 mm 1 mps 756 mmHg 84%
    05:00 +8°C° 0 mm 1 mps 756 mmHg 85%
    06:00 +9°C° 0 mm 1 mps 756 mmHg 85%
    07:00 +10°C° 0 mm 1 mps 756 mmHg 81%
    08:00 +10°C° 0 mm 2 mps 755 mmHg 77%
    09:00 +12°C° 0 mm 2 mps 755 mmHg 73%
    10:00 +12°C° 0.4 mm 2 mps 755 mmHg 76%
    11:00 +12°C° 0.4 mm 1 mps 755 mmHg 79%
    12:00 +12°C° 0.4 mm 1 mps 754 mmHg 82%
    13:00 +13°C° 0 mm 2 mps 754 mmHg 80%
    14:00 +14°C° 0 mm 2 mps 754 mmHg 79%
    15:00 +15°C° 0 mm 2 mps 753 mmHg 77%
    16:00 +15°C° 0.1 mm 2 mps 753 mmHg 80%
    17:00 +15°C° 0.1 mm 2 mps 752 mmHg 83%
    18:00 +15°C° 0.1 mm 2 mps 752 mmHg 87%
    19:00 +15°C° 0.5 mm 2 mps 752 mmHg 89%
    20:00 +14°C° 0.5 mm 2 mps 752 mmHg 92%
    21:00 +14°C° 0.5 mm 2 mps 751 mmHg 95%
    22:00 +13°C° 0 mm 3 mps 751 mmHg 93%
    23:00 +13°C° 0 mm 4 mps 750 mmHg 92%

    23 May, Thursday

    Time Temperature Precipitation Wind Pressure Humidity
    00:00 +13°C° 0 mm 5 mps 750 mmHg 90%
    01:00 +13°C° 0 mm 6 mps 749 mmHg 90%
    02:00 +11°C° 0 mm 6 mps 749 mmHg 90%
    03:00 +11°C° 0 mm 6 mps 749 mmHg 90%
    04:00 +11°C° 0 mm 7 mps 748 mmHg 88%
    05:00 +12°C° 0 mm 7 mps 748 mmHg 87%
    06:00 +12°C° 0 mm 7 mps 748 mmHg 85%
    07:00 +15°C° 0 mm 8 mps 748 mmHg 81%
    08:00 +16°C° 0 mm 8 mps 747 mmHg 78%
    09:00 +18°C° 0 mm 9 mps 747 mmHg 74%
    10:00 +18°C° 0 mm 9 mps 747 mmHg 71%
    11:00 +19°C° 0 mm 9 mps 747 mmHg 67%
    12:00 +21°C° 0 mm 10 mps 746 mmHg 64%
    13:00 +21°C° 0.2 mm 10 mps 746 mmHg 63%
    14:00 +21°C° 0.2 mm 9 mps 746 mmHg 62%
    15:00 +21°C° 0.2 mm 9 mps 746 mmHg 61%
    16:00 +21°C° 0.1 mm 8 mps 746 mmHg 64%
    17:00 +20°C° 0.1 mm 7 mps 746 mmHg 66%
    18:00 +19°C° 0.1 mm 6 mps 746 mmHg 69%
    19:00 +17°C° 0.3 mm 5 mps 746 mmHg 74%
    20:00 +17°C° 0.3 mm 4 mps 746 mmHg 78%
    21:00 +14°C° 0.3 mm 3 mps 746 mmHg 83%
    22:00 +13°C° 0.1 mm 3 mps 746 mmHg 87%
    23:00 +12°C° 0.1 mm 3 mps 746 mmHg 92%

    24 May, Friday

    Time Temperature Precipitation Wind Pressure Humidity
    00:00 +11°C° 0.1 mm 4 mps 746 mmHg 96%
    01:00 +11°C° 0 mm 4 mps 746 mmHg 95%
    02:00 +11°C° 0 mm 4 mps 746 mmHg 94%
    03:00 +10°C° 0 mm 5 mps 746 mmHg 94%
    04:00 +10°C° 0 mm 5 mps 746 mmHg 92%
    05:00 +9°C° 0 mm 6 mps 747 mmHg 91%
    06:00 +9°C° 0 mm 6 mps 747 mmHg 90%
    07:00 +8°C° 0 mm 6 mps 747 mmHg 89%
    08:00 +8°C° 0 mm 6 mps 747 mmHg 87%
    09:00 +6°C° 0 mm 7 mps 747 mmHg 86%
    10:00 +6°C° 0 mm 7 mps 747 mmHg 84%
    11:00 +6°C° 0 mm 7 mps 748 mmHg 83%
    12:00 +6°C° 0 mm 7 mps 748 mmHg 81%
    13:00 +7°C° 0.1 mm 6 mps 748 mmHg 80%
    14:00 +7°C° 0.1 mm 6 mps 748 mmHg 80%
    15:00 +7°C° 0.1 mm 6 mps 748 mmHg 79%
    16:00 +7°C° 0.1 mm 6 mps 748 mmHg 78%
    17:00 +7°C° 0.1 mm 5 mps 748 mmHg 77%
    18:00 +7°C° 0.1 mm 5 mps 749 mmHg 75%
    19:00 +6°C° 0 mm 4 mps 749 mmHg 77%
    20:00 +5°C° 0 mm 4 mps 749 mmHg 78%
    21:00 +4°C° 0 mm 3 mps 750 mmHg 79%
    22:00 +4°C° 0 mm 3 mps 750 mmHg 80%
    23:00 +4°C° 0 mm 3 mps 750 mmHg 80%
    Show more